Location: Shenandoah County Park
(38.9356°N, 78.4524°W)
Time: 19:52:38
(UTC-05:00)

X-37B - Pass Details

Date: 04 December 2022
Orbit: 277 x 277 km, 45.0° (Epoch: 01 November)

Event Time Altitude Azimuth Distance (km) Brightness Sun altitude
Rises 18:27:38 0° 209° (SSW) 1,899 4.7 -18.2°
Reaches altitude 10° 18:29:55 10° 186° (S) 1,091 3.1 -18.6°
Enters shadow 18:30:16 12° 180° (S) 998 2.8 -18.7°
